Regional Weather Roundup
Issued by NWS

Home | Current Version | Previous Version | Text Only | Print | Product List | Glossary On
Versions: 1 2 3 4 5 6 7 8 9 10 11 12 13 14 15 16 17 18 19 20 21 22 23 24 25 26 27 28 29 30 31 32 33 34 35 36 37 38 39 40 41 42 43 44 45 46 47 48 49 50
000
ASUS43 KMKX 040710
RWRWI

WISCONSIN REGIONAL WEATHER ROUNDUP
NATIONAL WEATHER SERVICE MILWAUKEE/SULLIVAN WI
100 AM CST WED MAR 04 2015

NOTE: "FAIR" INDICATES FEW OR NO CLOUDS BELOW 12,000 FEET WITH NO
SIGNIFICANT WEATHER AND/OR OBSTRUCTIONS TO VISIBILITY.

WIZ001-002-006>008-014>016-023>028-040800-
NORTHWEST WISCONSIN

CITY           SKY/WX    TMP DP  RH WIND       PRES   REMARKS
SUPERIOR ARPT  CLEAR      2  -9  61 W12G18    29.97R WCI -15
ASHLAND        PTCLDY     5  -5  63 W15       29.90R WCI -13
HAYWARD        CLEAR      3 -10  54 NW12G22   29.90R WCI -13
SIREN          FAIR       2  -4  73 W9        29.97R WCI -12
CUMBERLAND     MOCLDY     3  -4  72 W14       29.94R WCI -15
RICE LAKE      CLEAR      5  -5  62 W10       29.96R WCI -10
CHETEK         PTCLDY     5  -4  64 MISG      29.96R
LADYSMITH      CLEAR      7  -1  67 W13G20    29.90R WCI  -9
EAU CLAIRE     CLEAR      7  -4  60 W10       29.97R WCI  -8
MENOMONIE      CLEAR      7  -3  62 W8        30.00R WCI  -5
NEW RICHMOND   CLEAR      4  -4  67 W10       30.01R WCI -11
OSCEOLA        CLEAR      4  -4  67 W7        30.04R WCI  -8
$$

WIZ003>005-009-010-017-018-040800-
NORTH CENTRAL WISCONSIN

CITY           SKY/WX    TMP DP  RH WIND       PRES   REMARKS
MANITOWISH WTR CLEAR      4  -4  67 W10G17    29.78R WCI -11
ARBOR VITAE    CLOUDY     9   0  65 NW9       29.78R WCI  -4
WOODRUFF       CLOUDY     9   0  65 NW9       29.78R WCI  -4
RHINELANDER    PTCLDY     8  -2  63 W13G21    29.78R WCI  -8
EAGLE RIVER    CLEAR      7  -4  60 NW14G21   29.76R WCI  -9
LAND O LAKES   CLOUDY     9   0  67 NW8       29.76R WCI  -3
PHILLIPS       FAIR       6  -2  70 NW6       29.82R WCI  -5
TOMAHAWK       CLEAR      9  -1  65 NW10G21   29.81R WCI  -5
MEDFORD        CLEAR      9   0  65 W13       29.83R WCI  -7
MERRILL        CLEAR     12   0  60 NW9       29.82R WCI  -1
$$

WIZ029-030-035-036-043>047-040800-
CENTRAL WISCONSIN

CITY           SKY/WX    TMP DP  RH WIND       PRES   REMARKS
WAUSAU         CLEAR     13   2  61 W14       29.82R WCI  -2
MOSINEE        CLEAR     12   5  73 W13G21    29.84R WCI  -3
MARSHFIELD     CLEAR     11   1  64 W14       29.86R WCI  -5
STEVENS POINT  CLEAR     12   4  70 W9        29.86R WCI   0
WAUPACA        CLEAR     20   7  56 W9G23     29.85R WCI   9
WAUTOMA        CLEAR     17   7  65 W15       29.88R WCI   2
WISC RAPIDS    CLEAR     13   3  64 W12       29.89R WCI  -1
CAMP DOUGLAS   PTCLDY    14   7  73 W15       29.91R WCI  -1
$$

WIZ011>013-019>022-031-037>040-048>050-040800-
NORTHEAST WISCONSIN

CITY           SKY/WX    TMP DP  RH WIND       PRES   REMARKS
ANTIGO         CLEAR     10   1  66 W12       29.78R WCI  -4
SHAWANO        CLEAR     21   5  50 NW12      29.82R WCI   9
OCONTO         CLEAR     20   7  56 NW8       29.80R WCI  11
STURGEON BAY   CLEAR     19   7  58 W10       29.80R WCI   8
GREEN BAY      CLEAR     21   7  54 W17       29.81R WCI   7
MANITOWOC      CLEAR     22  12  65 W15         N/A  WCI   9
APPLETON       CLEAR     19   5  53 W14       29.83R WCI   6
CLINTONVILLE   CLEAR     19   7  58 W13       29.82R WCI   7
OSHKOSH        CLEAR     20   9  62 NW12      29.83R WCI   8
$$

WIZ032>034-041-042-053>061-040800-
SOUTHWEST WISCONSIN

CITY           SKY/WX    TMP DP  RH WIND       PRES   REMARKS
LA CROSSE      CLEAR     12   2  64 NW15      29.99R WCI  -4
SPARTA         PTCLDY    13   6  72 W12G20    29.95R WCI  -1
VIROQUA        CLEAR     10   3  75 NW13      29.92R WCI  -5
BOSCOBEL       CLEAR     15   6  67 W3        29.98R
PRAIRIE DU CHI CLEAR     12   3  67 W15G22    30.00R WCI  -4
PLATTEVILLE    CLEAR     13   7  79 W9        29.93R WCI   0
$$

WIZ056-057-062-063-064-067-068-040800-
SOUTH CENTRAL WISCONSIN

CITY           SKY/WX    TMP DP  RH WIND       PRES   REMARKS
REEDSBURG      CLEAR     15   8  73 W9G18     29.90R WCI   4
BARABOO/DELLS  CLEAR     16   9  74 W14       29.89R WCI   2
LONE ROCK      CLEAR     16   6  65 W17       29.95R WCI   0
MINERAL POINT  FLURRIES  16  10  79 NW8       29.90R WCI   5
MADISON        CLEAR     21  12  68 W9        29.88R WCI  11
MIDDLETON      CLEAR     21  11  66 NW13      29.89R WCI   9
WATERTOWN      CLOUDY    26  18  74 NW13      29.85R WCI  14
MONROE         PTCLDY    19  14  79 W12       29.88R WCI   7
JANESVILLE     PTCLDY    27  19  74 W10       29.87R WCI  17
$$

WIZ051-052-058>065-066-070>072-040800-
SOUTHEAST WISCONSIN

CITY           SKY/WX    TMP DP  RH WIND       PRES   REMARKS
MILWAUKEE      MOCLDY    29  18  63 W6        29.84R WCI  23
WAUKESHA       CLOUDY    27  18  69 W13       29.84R WCI  16
MILWAUKEE/TIMM CLOUDY    30  21  69 W8        29.84R WCI  23
RACINE         CLOUDY    30  21  69 W5        29.86R WCI  25
BURLINGTON     PTCLDY    26  18  74 W5        29.86R WCI  20
KENOSHA        CLOUDY    29  23  78 W7        29.85R WCI  22
FOND DU LAC    CLEAR     22  11  62 W14       29.84R WCI   9
SHEBOYGAN      MOCLDY    24  13  62 NW12      29.82R WCI  13
WEST BEND      MOCLDY    27  14  59 W13G18    29.83R WCI  16
JUNEAU         CLEAR     21  12  67 NW8       29.86R WCI  12
$$

LSZ147-162-040800-
LAKE SUPERIOR

STATION/POSITION TIME  TEMP    WIND        PRES    WAVE
                       AIR SEA DIR/SP/G            HT/PER
                 (UTC) (F)     (DEG/KT/KT) (MB)    (FT/S)
DEVILS ISLAND    0700    8     280/ 26/ 31 1013.4R
PORT WING        0640    7     290/ 22     1013.2R
SAXON HARBOR     0600   10     280/ 10/ 16 1011.9
$$

LMZ867-665-643>646-040800-
LAKE MICHIGAN

STATION/POSITION TIME  TEMP    WIND        PRES    WAVE
                       AIR SEA DIR/SP/G            HT/PER
                 (UTC) (F)     (DEG/KT/KT) (MB)    (FT/S)
NORTHPORT PIER   0703   20     290/  6/ 16 1008.5R
SISTER BAY       0613   19     330/ 15/ 17   N/A
KEWAUNEE LAKESHO 0600   26     290/ 11/ 19 1007.5R
SHEBOYGAN LAKESH 0700   26     300/ 13/ 16 1011.4R
PORT WASHINGTON  0600   29     290/  3/  7 1010.8
MILWAUKEE LAKESH 0600   31     280/  8/ 12   N/A
KENOSHA   LAKESH 0700   30     260/  7/  9 1011.2R
$$

TC  - TEMPERATURE IN CELSIUS
VSB - VISIBILITY IN STATUTE MILES
WCI - WIND CHILL INDEX
HX  - HEAT INDEX



USA.gov is the U.S. government's official web portal to all federal, state and local government web resources and services.